Regional Weather Roundup
Issued by NWS

Home | Current Version | Previous Version | Text Only | Print | Product List | Glossary Off
Versions: 1 2 3 4 5 6 7 8 9 10 11 12 13 14 15 16 17 18 19 20 21 22 23 24 25 26 27 28 29 30 31 32 33 34 35 36 37 38 39 40 41 42 43 44 45 46 47 48 49 50

517
ASUS43 KLOT 251104
RWRIL

ILLINOIS REGIONAL WEATHER ROUNDUP
NATIONAL WEATHER SERVICE CHICAGO/ROMEOVILLE IL
600 AM CDT SUN JUN 25 2017

NOTE: "FAIR" INDICATES FEW OR NO CLOUDS BELOW 12,000 FEET WITH NO
SIGNIFICANT WEATHER AND/OR OBSTRUCTIONS TO VISIBILITY.

* THESE STATIONS ARE NOT UNDER NWS QUALITY CONTROL. THEY ALSO MAY NOT
  REPORT WEATHER SUCH AS PRECIPITATION OR FOG.

ILZ001-002-007-009-015-016-024-251200-
NORTHWEST ILLINOIS

CITY           SKY/WX    TMP DP  RH WIND       PRES   REMARKS
MOLINE         CLEAR     53  50  89 CALM      30.14R
STERLING*      CLEAR     52  50  93 W7        30.13R
SAVANNA*       CLEAR     55  49  79 NW9       30.13R
$$

ILZ003-004-008-010-011-017-018-251200-
NORTH CENTRAL ILLINOIS

CITY           SKY/WX    TMP DP  RH WIND       PRES   REMARKS
ROCKFORD       CLEAR     54  50  86 W10       30.11R
FREEPORT*      CLEAR     50  48  92 W5        30.12R
ROCHELLE*      CLEAR     51  50  97 W6        30.12R
DE KALB*       CLEAR     53  49  85 W9        30.11R
PERU*          CLEAR     52  47  84 W8        30.13R
$$

ILZ005-006-012>014-019>023-251200-
NORTHEAST ILLINOIS

CITY           SKY/WX    TMP DP  RH WIND       PRES   REMARKS
CHICAGO-OHARE  PTCLDY    55  48  77 W8        30.07R
CHICAGO-MIDWAY CLEAR     56  48  74 SW8       30.08R
AURORA         CLEAR     52  49  89 SW6       30.11R
LANSING*       CLEAR     54  47  77 W6        30.10R
JOLIET*        CLEAR     55  50  82 W3        30.11R
WAUKEGAN       CLEAR     54  49  83 VRB6      30.05R
DUPAGE AIRPORT CLEAR     53  50  89 W7        30.08R
WHEELING       CLEAR     55  50  83 W7        30.08R
MORRIS*        CLEAR     53  49  85 W6        30.10R
ROMEOVILLE*    CLEAR     54  47  75 W9        30.10R
NORTHERLY ISL    N/A     58  46  64 W5          N/A
$$

LMZ740>746-251200-
SOUTHERN LAKE MICHIGAN

STATION/POSITION SKY/WX   TEMP    WIND        PRES    VSBY  WAVE
                          AIR SEA DIR/SP/G                  HT/PER
                          (F)     (DEG/KT/KT) (MB)    (MI)  (FT/S)
SOUTHERN BUOY              57 61  310/ 16/ 19 1016.1          3/ 5
WILMETTE HARBOR            57 64  260/ 14/ 16   N/A           1/ 2
HARRISON CRIB              59     270/ 15/ 18   N/A
BURNHAM HARBOR             58                   N/A
CALUMET HARBOR             58     250/  4/  7 1018.1R
BURNS HARBOR               61     300/ 14/ 19 1019.0R
MICHIGAN CITY              60     270/ 17/ 18   N/A
MICHIGAN CITY 6N           61 67  290/ 14/ 19   N/A           5/ 5
ST. JOSEPH                 61 68  300/ 16/ 21 1017.8R         5/ 5
$$

ILZ025>027-034>036-040-047-049-050-058-095>099-251200-
WEST-CENTRAL ILLINOIS

CITY           SKY/WX    TMP DP  RH WIND       PRES   REMARKS
QUINCY         CLEAR     54  51  90 SW3       30.18R
GALESBURG*     CLEAR     48  46  91 CALM      30.17R
MACOMB*        CLEAR     50  48  93 W5        30.19R
JACKSONVILLE*  CLEAR     54  49  83 CALM      30.17R
PITTSFIELD*    PTCLDY    56  51  82 W5        30.19R
$$

ILZ028>032-037-038-041>044-048-051>054-059>061-251200-
CENTRAL ILLINOIS

CITY           SKY/WX    TMP DP  RH WIND       PRES   REMARKS
PONTIAC        CLEAR     54  52  93 W3        30.14R
BLOOMINGTON    CLEAR     55  48  77 W6        30.16R
DECATUR        CLEAR     58  48  69 W7        30.15R
PEORIA         CLEAR     53  49  86 CALM      30.15R
LACON*         CLEAR     52  49  91 CALM      30.13R
LINCOLN*       CLEAR     58  50  76 CALM      30.15R
SPRINGFIELD    CLEAR     56  50  80 SW3       30.16R
TAYLORVILLE    CLEAR     56  48  73 W8        30.17R
$$

ILZ033-039-045-046-055>057-062-063-251200-
EAST-CENTRAL ILLINOIS

CITY           SKY/WX    TMP DP  RH WIND       PRES   REMARKS
CHAMPAIGN      CLEAR     53  47  79 W6        30.14R
RANTOUL*       CLEAR     55  49  81 W6        30.14R
MATTOON        PTCLDY    57  49  74 W5        30.15R
PARIS*         PTCLDY    55  50  83 SW8       30.15S
$$

ILZ079-100>102-251200-
SOUTHWEST ILLINOIS

CITY           SKY/WX    TMP DP  RH WIND       PRES   REMARKS
ALTON          CLEAR     55  51  85 SW5       30.19R
BELLEVILLE     PTCLDY    58  49  72 SW5       30.19R
CAHOKIA*       PTCLDY    60  49  66 SW3       30.19R
SPARTA*        CLEAR     59  48  67 SW3       30.21R
$$

ILZ064>066-069>071-074>076-080>082-084>086-088>090-092>094-251200-
SOUTH-CENTRAL ILLINOIS

CITY           SKY/WX    TMP DP  RH WIND       PRES   REMARKS
CARBONDALE     PTCLDY    54  54 100 S5        30.20R
CAIRO*         PTCLDY    57  57  99 CALM      30.20S
EFFINGHAM*     CLEAR     58  51  78 SW3       30.18R
MARION         PTCLDY    57  57 100 SW3       30.20S
MT. VERNON     CLEAR     52  52 100 CALM      30.19R FOG
CENTRALIA*     CLEAR     58  50  75 SW7       30.17S
SALEM*         CLEAR     56  50  78 SW6       30.18R
METROPOLIS*    PTCLDY    56  56  98 CALM      30.21R
$$

ILZ067-068-072-073-078-083-087-091-251200-
SOUTHEAST ILLINOIS

CITY           SKY/WX    TMP DP  RH WIND       PRES   REMARKS
LAWRENCEVILLE  CLEAR     54  52  93 S3        30.16R
FLORA*         CLEAR     58  49  71 SW6       30.17S
FAIRFIELD*     CLEAR     54  53  99 CALM      30.17S
HARRISBURG*    PTCLDY    55  55  99 CALM      30.20S
ROBINSON*      CLEAR     55  50  83 SW6       30.16R
CARMI*         CLEAR     56  54  91 S3        30.18S
$$

ABBREVIATIONS USED IN REMARKS
   TC - TEMPERATURE IN CELSIUS
  WCI - WIND CHILL INDEX
   HX - HEAT INDEX
  VSB - VISIBILITY
$$





USA.gov is the U.S. government's official web portal to all federal, state and local government web resources and services.